| time (UTC) | temp F | wind direction | speed knots | gust knots | rain 1hr in | rain 24hr in | rain mn in | humidity % | barometer mb |
| 20260901074538 | 54 | 134 | 6.1 | 7.0 | 0.00 | 0.00 | 0.00 | 66 | 1010.6 |
| 20260901073038 | 53 | 128 | 6.1 | 7.0 | 0.00 | 0.00 | 0.00 | 67 | 1010.8 |
| 20260901071518 | 55 | 125 | 5.2 | 7.8 | 0.00 | 0.00 | 0.00 | 61 | 1010.7 |
| 20260901070017 | 54 | 129 | 6.1 | 8.7 | 0.00 | 0.00 | 0.00 | 66 | 1010.6 |
| 20260901064557 | 53 | 102 | 2.6 | 5.2 | 0.00 | 0.00 | 0.00 | 61 | 1010.8 |
| 20260901063106 | 54 | 119 | 6.1 | 7.0 | 0.00 | 0.00 | 0.00 | 64 | 1010.7 |
| 20260901061543 | 56 | 130 | 5.2 | 7.8 | 0.00 | 0.00 | 0.00 | 60 | 1010.8 |
| 20260901060035 | 55 | 115 | 3.5 | 4.3 | 0.00 | 0.00 | 0.00 | 62 | 1010.9 |
| 20260901054514 | 55 | 115 | 4.3 | 7.0 | 0.00 | 0.00 | 0.00 | 60 | 1010.9 |
| 20260901053016 | 58 | 125 | 6.1 | 8.7 | 0.00 | 0.00 | 0.00 | 57 | 1011.0 |
| 20260901051552 | 59 | 134 | 7.8 | 8.7 | 0.00 | 0.00 | 0.00 | 54 | 1011.1 |
| 20260901050052 | 59 | 137 | 7.8 | 10.4 | 0.00 | 0.00 | 0.00 | 53 | 1011.1 |
| 20260901044534 | 59 | 133 | 7.8 | 9.6 | 0.00 | 0.00 | 0.00 | 52 | 1011.2 |
| 20260901043037 | 59 | 119 | 7.0 | 8.7 | 0.00 | 0.00 | 0.00 | 50 | 1011.2 |
| 20260901041516 | 58 | 103 | 5.2 | 7.8 | 0.00 | 0.00 | 0.00 | 50 | 1011.3 |
| 20260901040017 | 57 | 98 | 4.3 | 6.1 | 0.00 | 0.00 | 0.00 | 50 | 1011.2 |
| 20260901034553 | 60 | 92 | 6.1 | 7.8 | 0.00 | 0.00 | 0.00 | 46 | 1011.2 |
| 20260901033051 | 61 | 98 | 5.2 | 7.0 | 0.00 | 0.00 | 0.00 | 45 | 1011.1 |
| 20260901031532 | 61 | 91 | 6.1 | 7.0 | 0.00 | 0.00 | 0.00 | 47 | 1010.8 |
| 20260901030028 | 61 | 76 | 1.7 | 4.3 | 0.00 | 0.00 | 0.00 | 45 | 1010.8 |
| 20260901024508 | 63 | 60 | 1.7 | 3.5 | 0.00 | 0.00 | 0.00 | 44 | 1010.7 |
| 20260901023003 | 64 | 232 | 2.6 | 4.3 | 0.00 | 0.00 | 0.00 | 42 | 1010.7 |
| 20260901021545 | 67 | 232 | 1.7 | 3.5 | 0.00 | 0.00 | 0.00 | 38 | 1010.6 |
| 20260901020049 | 71 | 232 | 1.7 | 2.6 | 0.00 | 0.00 | 0.00 | 34 | 1010.7 |
| 20260901014530 | 74 | 232 | 0.9 | 1.7 | 0.00 | 0.00 | 0.00 | 32 | 1010.7 |
| 20260901013029 | 75 | 232 | 0.0 | 0.9 | 0.00 | 0.00 | 0.00 | 31 | 1010.8 |
| 20260901011526 | 75 | 232 | 0.0 | 3.5 | 0.00 | 0.00 | 0.00 | 31 | 1010.8 |
| 20260901010026 | 75 | 284 | 2.6 | 7.0 | 0.00 | 0.00 | 0.00 | 31 | 1010.9 |
| 20260901004525 | 75 | 236 | 3.5 | 7.0 | 0.00 | 0.00 | 0.00 | 31 | 1011.0 |
| 20260901003025 | 75 | 240 | 5.2 | 7.8 | 0.00 | 0.00 | 0.00 | 31 | 1011.1 |
| 20260901001524 | 76 | 223 | 5.2 | 7.8 | 0.00 | 0.00 | 0.00 | 31 | 1011.0 |
| 20260901000022 | 75 | 281 | 4.3 | 9.6 | 0.00 | 0.00 | 0.00 | 32 | 1010.9 |
| 20260831234506 | 76 | 258 | 3.5 | 8.7 | 0.00 | 0.00 | 0.00 | 32 | 1011.0 |
| 20260831233004 | 75 | 224 | 1.7 | 7.0 | 0.00 | 0.00 | 0.00 | 32 | 1011.1 |
| 20260831231550 | 75 | 303 | 7.0 | 9.6 | 0.00 | 0.00 | 0.00 | 33 | 1011.1 |
| 20260831230043 | 75 | 232 | 4.3 | 12.2 | 0.00 | 0.00 | 0.00 | 33 | 1011.1 |
| 20260831224523 | 75 | 238 | 6.1 | 9.6 | 0.00 | 0.00 | 0.00 | 33 | 1011.2 |
| 20260831223022 | 75 | 321 | 6.1 | 10.4 | 0.00 | 0.00 | 0.00 | 34 | 1011.3 |
| 20260831221504 | 74 | 178 | 7.0 | 15.6 | 0.00 | 0.00 | 0.00 | 34 | 1011.5 |
| 20260831220003 | 74 | 219 | 6.1 | 11.3 | 0.00 | 0.00 | 0.00 | 35 | 1011.3 |
| 20260831214545 | 74 | 225 | 6.1 | 13.0 | 0.00 | 0.00 | 0.00 | 35 | 1011.3 |
| 20260831213043 | 74 | 216 | 8.7 | 12.2 | 0.00 | 0.00 | 0.00 | 35 | 1011.4 |
| 20260831211532 | 74 | 285 | 6.1 | 10.4 | 0.00 | 0.00 | 0.00 | 36 | 1011.4 |
| 20260831210033 | 74 | 243 | 7.0 | 11.3 | 0.00 | 0.00 | 0.00 | 36 | 1011.5 |
| 20260831204529 | 73 | 181 | 5.2 | 14.8 | 0.00 | 0.00 | 0.00 | 37 | 1011.7 |
| 20260831203026 | 73 | 235 | 8.7 | 14.8 | 0.00 | 0.00 | 0.00 | 37 | 1011.8 |
| 20260831201528 | 72 | 243 | 2.6 | 10.4 | 0.00 | 0.00 | 0.00 | 38 | 1011.8 |
| 20260831200029 | 72 | 245 | 9.6 | 16.5 | 0.00 | 0.00 | 0.00 | 38 | 1011.9 |
| 20260831194528 | 72 | 296 | 8.7 | 14.8 | 0.00 | 0.00 | 0.00 | 38 | 1011.9 |
| 20260831193019 | 72 | 282 | 7.0 | 14.8 | 0.00 | 0.00 | 0.00 | 38 | 1012.1 |
| 20260831191600 | 71 | 268 | 9.6 | 14.8 | 0.00 | 0.00 | 0.00 | 39 | 1012.2 |
| 20260831190114 | 72 | 246 | 7.8 | 13.9 | 0.00 | 0.00 | 0.00 | 40 | 1012.4 |
| 20260831184539 | 71 | 240 | 6.1 | 13.9 | 0.00 | 0.00 | 0.00 | 41 | 1012.5 |
| 20260831183037 | 71 | 310 | 9.6 | 13.9 | 0.00 | 0.00 | 0.00 | 41 | 1012.8 |
| 20260831181518 | 70 | 256 | 8.7 | 15.6 | 0.00 | 0.00 | 0.00 | 42 | 1012.7 |
| 20260831180015 | 70 | 296 | 6.1 | 14.8 | 0.00 | 0.00 | 0.00 | 42 | 1012.8 |
| 20260831174614 | 69 | 285 | 8.7 | 13.9 | 0.00 | 0.00 | 0.00 | 44 | 1012.8 |
| 20260831173058 | 69 | 312 | 10.4 | 17.4 | 0.00 | 0.00 | 0.00 | 45 | 1012.8 |
| 20260831171553 | 68 | 323 | 7.0 | 13.9 | 0.00 | 0.00 | 0.00 | 47 | 1012.8 |
| 20260831170035 | 67 | 318 | 7.8 | 14.8 | 0.00 | 0.00 | 0.00 | 47 | 1012.9 |
| 20260831164531 | 67 | 295 | 11.3 | 15.6 | 0.00 | 0.00 | 0.00 | 47 | 1013.0 |
| 20260831163010 | 66 | 333 | 8.7 | 17.4 | 0.00 | 0.00 | 0.00 | 49 | 1012.9 |
| 20260831161510 | 65 | 300 | 11.3 | 19.1 | 0.00 | 0.00 | 0.00 | 48 | 1012.9 |
| 20260831160058 | 64 | 319 | 9.6 | 18.2 | 0.00 | 0.00 | 0.00 | 49 | 1012.9 |
| 20260831154617 | 63 | 281 | 13.0 | 18.2 | 0.00 | 0.00 | 0.00 | 49 | 1012.8 |
| 20260831153033 | 63 | 287 | 13.0 | 19.1 | 0.00 | 0.00 | 0.00 | 50 | 1012.8 |
| 20260831151534 | 62 | 284 | 15.6 | 20.9 | 0.00 | 0.00 | 0.00 | 50 | 1012.7 |
| 20260831150016 | 61 | 298 | 14.8 | 20.0 | 0.00 | 0.00 | 0.00 | 51 | 1012.6 |
| 20260831144511 | 59 | 284 | 12.2 | 19.1 | 0.00 | 0.00 | 0.00 | 55 | 1012.3 |
| 20260831143110 | 57 | 313 | 12.2 | 16.5 | 0.00 | 0.00 | 0.00 | 60 | 1012.2 |
| 20260831141611 | 55 | 292 | 11.3 | 15.6 | 0.00 | 0.00 | 0.00 | 65 | 1012.0 |
| 20260831140041 | 52 | 304 | 11.3 | 14.8 | 0.00 | 0.00 | 0.00 | 69 | 1012.0 |
| 20260831134536 | 50 | 284 | 10.4 | 13.0 | 0.00 | 0.00 | 0.00 | 74 | 1011.9 |
| 20260831133021 | 48 | 263 | 7.8 | 11.3 | 0.00 | 0.00 | 0.00 | 77 | 1011.8 |
| 20260831131512 | 48 | 258 | 9.6 | 13.9 | 0.00 | 0.00 | 0.00 | 77 | 1011.5 |
| 20260831130056 | 47 | 281 | 10.4 | 13.9 | 0.00 | 0.00 | 0.00 | 79 | 1011.3 |
| 20260831124559 | 48 | 246 | 8.7 | 12.2 | 0.00 | 0.00 | 0.00 | 76 | 1011.3 |
| 20260831123031 | 47 | 275 | 9.6 | 12.2 | 0.00 | 0.00 | 0.00 | 77 | 1011.1 |
| 20260831121530 | 48 | 261 | 8.7 | 12.2 | 0.00 | 0.00 | 0.00 | 76 | 1011.0 |
| 20260831120013 | 47 | 259 | 8.7 | 13.0 | 0.00 | 0.00 | 0.00 | 76 | 1010.9 |
| 20260831114512 | 47 | 255 | 11.3 | 13.0 | 0.00 | 0.00 | 0.00 | 77 | 1010.9 |
| 20260831113055 | 48 | 261 | 10.4 | 13.9 | 0.00 | 0.00 | 0.00 | 76 | 1010.8 |
| 20260831111555 | 46 | 257 | 8.7 | 10.4 | 0.00 | 0.00 | 0.00 | 78 | 1010.9 |
| 20260831110037 | 47 | 256 | 9.6 | 14.8 | 0.00 | 0.00 | 0.00 | 77 | 1010.7 |
| 20260831104533 | 47 | 264 | 10.4 | 13.0 | 0.00 | 0.00 | 0.00 | 76 | 1010.4 |
| 20260831103014 | 47 | 254 | 11.3 | 13.9 | 0.00 | 0.00 | 0.00 | 75 | 1010.4 |
| 20260831101511 | 47 | 249 | 7.8 | 10.4 | 0.00 | 0.00 | 0.00 | 75 | 1010.3 |
| 20260831100059 | 47 | 251 | 7.0 | 9.6 | 0.00 | 0.00 | 0.00 | 74 | 1010.3 |
| 20260831094551 | 48 | 236 | 8.7 | 12.2 | 0.00 | 0.00 | 0.00 | 72 | 1010.2 |
| 20260831093032 | 49 | 248 | 9.6 | 13.9 | 0.00 | 0.00 | 0.00 | 71 | 1010.2 |
| 20260831091533 | 49 | 245 | 8.7 | 10.4 | 0.00 | 0.00 | 0.00 | 71 | 1010.3 |
| 20260831090014 | 48 | 232 | 7.0 | 9.6 | 0.00 | 0.00 | 0.00 | 72 | 1010.3 |
| 20260831084511 | 48 | 240 | 6.1 | 9.6 | 0.00 | 0.00 | 0.00 | 72 | 1009.9 |
| 20260831083053 | 49 | 229 | 8.7 | 10.4 | 0.00 | 0.03 | 0.00 | 70 | 1009.9 |
| 20260831081551 | 48 | 237 | 8.7 | 10.4 | 0.00 | 0.03 | 0.00 | 72 | 1009.8 |
| 20260831080029 | 50 | 231 | 7.8 | 11.3 | 0.00 | 0.03 | 0.00 | 69 | 1009.7 |